Regional Weather Roundup
Issued by NWS

Home | Current Version | Previous Version | Graphics & Text | Print | Product List | Glossary On
Versions: 1 2 3 4 5 6 7 8 9 10 11 12 13 14 15 16 17 18 19 20 21 22 23 24 25 26 27 28 29 30 31 32 33 34 35 36 37 38 39 40 41 42 43 44 45 46 47 48 49 50
000
ASUS43 KLMK 281210
RWRKY
NATIONAL WEATHER SERVICE LOUISVILLE KY
700 AM EST FRI NOV 28 2014

NOTE "FAIR" INDICATES FEW OR NO CLOUDS BELOW 12,000 FEET
WITH NO SIGNIFICANT WEATHER AND/OR OBSTRUCTIONS TO VISIBILITY.

KYZ001>023-026-027-061>063-070>075-281300-
WESTERN AND SOUTH CENTRAL KENTUCKY

CITY           SKY/WX    TMP DP  RH WIND       PRES   REMARKS
PADUCAH        CLEAR     27  22  81 S5        30.39F WCI  22
HENDERSON      CLOUDY    27  21  80 S5        30.41F WCI  21
OWENSBORO      MOCLDY    27  25  92 S7        30.42F WCI  20
HOPKINSVILLE   PTCLDY    27  24  91 SE6       30.42F WCI  20
BOWLING GREEN  CLOUDY    27  21  78 S3        30.45S
GLASGOW        MOCLDY    25  22  89 CALM      30.43F
$$

KYZ024-025-028>034-038-045-046-053-281300-
NORTH CENTRAL KENTUCKY

CITY           SKY/WX    TMP DP  RH WIND       PRES   REMARKS
LOUISVILLE/SDF CLOUDY    27  18  69 S3        30.43R
LOUISVILLE/LOU CLOUDY    26  19  74 S5        30.43S WCI  20
FORT KNOX      CLOUDY    24  20  86 SE3       30.40S
$$

KYZ035>037-039>044-047>052-055>060-089>105-281300-
NORTHEAST KENTUCKY

CITY           SKY/WX    TMP DP  RH WIND       PRES   REMARKS
LEXINGTON      CLOUDY    25  21  85 W5        30.40F WCI  19
COVINGTON      CLOUDY    27  19  72 W8        30.39R WCI  19
FRANKFORT      CLOUDY    26  18  71 W3        30.40F
$$

KYZ054-064>069-076>088-106>120-281300-
SOUTHEAST KENTUCKY

CITY           SKY/WX    TMP DP  RH WIND       PRES   REMARKS
JACKSON        CLOUDY    26  16  65 W6        30.38R WCI  19
LONDON         CLOUDY    26  15  63 W3        30.41R
SOMERSET       CLOUDY    25  18  74 CALM      30.44S
MIDDLESBORO    NOT AVBL
MONTICELLO     PTSUNNY   27  21  80 CALM      30.46R
$$



USA.gov is the U.S. government's official web portal to all federal, state and local government web resources and services.